UAL197 RJAA-PGUM

Flight info

Callsign UAL197
Flight time 3h 19m
Altitude 33000
Route OLVAN Y823 MERED Y821 DAGDA A337 TEGOD/N0466F340 G205 GUYES DCT WUVEN
Aircraft B738/M-SDE2E3FGHIRWXY/LB1

Departure

Time 2026-04-21 16:11
Airport Narita International Airport (RJAA)

Arrival

Time 2026-04-21 19:30
Airport Antonio B. Won Pat International Airport (PGUM)
Time Latitude Longitude Altitude Speed Heading
2026-04-21 15:39 35.76133 140.38420 143 ft 0 kts 59°
2026-04-21 16:00 35.76131 140.38415 143 ft 3 kts 59°
2026-04-21 16:00 35.76121 140.38393 143 ft 3 kts 59°
2026-04-21 16:00 35.76110 140.38371 143 ft 3 kts 60°
2026-04-21 16:01 35.76100 140.38349 143 ft 3 kts 59°
2026-04-21 16:01 35.76089 140.38327 143 ft 3 kts 59°
2026-04-21 16:01 35.76085 140.38306 143 ft 2 kts 140°
2026-04-21 16:01 35.76102 140.38293 143 ft 3 kts 150°
2026-04-21 16:02 35.76106 140.38291 143 ft 0 kts 150°
2026-04-21 16:03 35.76101 140.38294 143 ft 4 kts 150°
2026-04-21 16:03 35.76098 140.38297 143 ft 0 kts 149°
2026-04-21 16:04 35.76097 140.38297 143 ft 0 kts 150°
2026-04-21 16:05 35.76096 140.38298 143 ft 1 kts 150°
2026-04-21 16:05 35.76095 140.38298 143 ft 0 kts 150°
2026-04-21 16:05 35.76093 140.38299 143 ft 1 kts 152°
2026-04-21 16:05 35.76085 140.38299 143 ft 1 kts 199°
2026-04-21 16:06 35.76070 140.38287 143 ft 4 kts 211°
2026-04-21 16:06 35.76039 140.38246 143 ft 10 kts 234°
2026-04-21 16:06 35.75996 140.38171 143 ft 13 kts 214°
2026-04-21 16:06 35.75895 140.38200 143 ft 19 kts 150°
2026-04-21 16:07 35.75772 140.38291 144 ft 21 kts 150°
2026-04-21 16:07 35.75633 140.38392 143 ft 24 kts 151°
2026-04-21 16:07 35.75482 140.38499 143 ft 26 kts 149°
2026-04-21 16:07 35.75321 140.38620 143 ft 28 kts 148°
2026-04-21 16:08 35.74980 140.38859 144 ft 31 kts 148°
2026-04-21 16:08 35.74789 140.39005 144 ft 33 kts 154°
2026-04-21 16:08 35.74589 140.39139 143 ft 22 kts 148°
2026-04-21 16:09 35.74482 140.39219 143 ft 12 kts 150°
2026-04-21 16:09 35.74408 140.39211 142 ft 12 kts 236°
2026-04-21 16:09 35.74368 140.39122 141 ft 12 kts 246°
2026-04-21 16:09 35.74382 140.39036 141 ft 12 kts 324°
2026-04-21 16:10 35.74499 140.38953 141 ft 45 kts 330°
2026-04-21 16:10 35.74972 140.38610 144 ft 112 kts 329°
2026-04-21 16:10 35.75816 140.38007 150 ft 166 kts 330°
2026-04-21 16:10 35.76843 140.37253 720 ft 173 kts 328°
2026-04-21 16:11 35.77859 140.36484 1546 ft 172 kts 329°
2026-04-21 16:11 35.78939 140.35702 2055 ft 189 kts 329°
2026-04-21 16:11 35.80150 140.34862 2453 ft 209 kts 327°
2026-04-21 16:11 35.81451 140.33936 2900 ft 217 kts 329°
2026-04-21 16:12 35.82763 140.32993 3581 ft 219 kts 331°
2026-04-21 16:12 35.84091 140.32037 4214 ft 224 kts 330°
2026-04-21 16:12 35.85479 140.31034 4677 ft 239 kts 330°
2026-04-21 16:12 35.86917 140.29988 5369 ft 246 kts 329°
2026-04-21 16:13 35.88418 140.28897 6130 ft 250 kts 329°
2026-04-21 16:13 35.89925 140.27801 6891 ft 253 kts 329°
2026-04-21 16:13 35.91442 140.26696 7665 ft 255 kts 328°
2026-04-21 16:13 35.92986 140.25570 8387 ft 258 kts 328°
2026-04-21 16:14 35.94536 140.24440 9142 ft 261 kts 328°
2026-04-21 16:14 35.96085 140.23320 9873 ft 262 kts 329°
2026-04-21 16:14 35.97877 140.22676 10565 ft 273 kts 355°
2026-04-21 16:14 35.99804 140.23094 10986 ft 299 kts 18°
2026-04-21 16:15 36.01601 140.24629 11172 ft 330 kts 38°
2026-04-21 16:15 36.03240 140.26683 11320 ft 356 kts 48°
2026-04-21 16:15 36.04336 140.29546 11545 ft 383 kts 76°
2026-04-21 16:15 36.04444 140.32879 12076 ft 393 kts 91°
2026-04-21 16:16 36.04354 140.36310 12701 ft 398 kts 90°
2026-04-21 16:16 36.04326 140.39712 13224 ft 405 kts 89°
2026-04-21 16:16 36.04096 140.43217 13689 ft 414 kts 104°
2026-04-21 16:16 36.02949 140.46472 14253 ft 416 kts 124°
2026-04-21 16:17 36.01395 140.49504 14842 ft 420 kts 125°
2026-04-21 16:17 35.99827 140.52589 15327 ft 428 kts 125°
2026-04-21 16:17 35.98066 140.55550 15855 ft 427 kts 137°
2026-04-21 16:17 35.95990 140.58173 16507 ft 427 kts 141°
2026-04-21 16:18 35.93879 140.60769 16946 ft 434 kts 140°
2026-04-21 16:18 35.91755 140.63469 17383 ft 441 kts 140°
2026-04-21 16:18 35.89639 140.66229 17897 ft 444 kts 140°
2026-04-21 16:18 35.87312 140.68694 18328 ft 436 kts 156°
2026-04-21 16:19 35.84697 140.70546 18836 ft 435 kts 159°
2026-04-21 16:19 35.82036 140.72346 19350 ft 437 kts 159°
2026-04-21 16:19 35.79370 140.74180 19834 ft 440 kts 159°
2026-04-21 16:19 35.76705 140.76065 20301 ft 444 kts 158°
2026-04-21 16:20 35.74025 140.77992 20758 ft 447 kts 158°
2026-04-21 16:20 35.71338 140.79925 21197 ft 449 kts 159°
2026-04-21 16:20 35.68532 140.81546 21652 ft 441 kts 168°
2026-04-21 16:20 35.65652 140.82796 22072 ft 440 kts 171°
2026-04-21 16:21 35.62726 140.83971 22457 ft 443 kts 172°
2026-04-21 16:21 35.59786 140.85145 22834 ft 446 kts 171°
2026-04-21 16:21 35.56832 140.86352 23232 ft 449 kts 171°
2026-04-21 16:21 35.53876 140.87592 23646 ft 451 kts 171°
2026-04-21 16:22 35.50899 140.88863 23996 ft 454 kts 171°
2026-04-21 16:22 35.47912 140.90150 24320 ft 457 kts 171°
2026-04-21 16:22 35.44904 140.91450 24652 ft 460 kts 170°
2026-04-21 16:22 35.41865 140.92763 24947 ft 464 kts 171°
2026-04-21 16:23 35.38826 140.94075 25260 ft 466 kts 171°
2026-04-21 16:23 35.35749 140.95401 25551 ft 470 kts 171°
2026-04-21 16:23 35.32661 140.96731 25864 ft 472 kts 171°
2026-04-21 16:23 35.29597 140.98049 26156 ft 474 kts 171°
2026-04-21 16:24 35.26474 140.99391 26394 ft 477 kts 171°
2026-04-21 16:24 35.23335 141.00738 26663 ft 479 kts 171°
2026-04-21 16:24 35.20179 141.02091 26924 ft 482 kts 171°
2026-04-21 16:24 35.17008 141.03468 27169 ft 485 kts 171°
2026-04-21 16:25 35.13822 141.04871 27432 ft 487 kts 170°
2026-04-21 16:25 35.10628 141.06285 27666 ft 490 kts 170°
2026-04-21 16:25 35.07411 141.07707 27833 ft 494 kts 170°
2026-04-21 16:25 35.04172 141.09135 28061 ft 496 kts 170°
2026-04-21 16:26 35.00924 141.10567 28324 ft 497 kts 170°
2026-04-21 16:26 34.97659 141.12004 28588 ft 498 kts 170°
2026-04-21 16:26 34.94397 141.13436 28768 ft 501 kts 170°
2026-04-21 16:26 34.91107 141.14878 29025 ft 502 kts 170°
2026-04-21 16:27 34.87819 141.16322 29389 ft 501 kts 170°
2026-04-21 16:27 34.84550 141.17756 29770 ft 499 kts 171°
2026-04-21 16:27 34.81285 141.19183 30044 ft 499 kts 171°
2026-04-21 16:27 34.78006 141.20612 30209 ft 503 kts 171°
2026-04-21 16:28 34.74707 141.22045 30483 ft 503 kts 171°
2026-04-21 16:28 34.71417 141.23474 30869 ft 500 kts 171°
2026-04-21 16:28 34.68159 141.24888 31260 ft 497 kts 171°
2026-04-21 16:28 34.64899 141.26299 31580 ft 496 kts 171°
2026-04-21 16:29 34.61645 141.27708 31849 ft 496 kts 171°
2026-04-21 16:29 34.58400 141.29117 32130 ft 496 kts 170°
2026-04-21 16:29 34.55146 141.30532 32423 ft 495 kts 170°
2026-04-21 16:29 34.51906 141.31941 32676 ft 495 kts 170°
2026-04-21 16:30 34.48706 141.33331 32963 ft 494 kts 170°
2026-04-21 16:30 34.45467 141.34735 33067 ft 496 kts 170°
2026-04-21 16:30 34.42164 141.36163 33068 ft 498 kts 170°
2026-04-21 16:31 34.35702 141.38962 33056 ft 494 kts 170°
2026-04-21 16:31 34.29278 141.41741 33066 ft 489 kts 169°
2026-04-21 16:31 34.26146 141.43491 33044 ft 505 kts 156°
2026-04-21 16:32 34.23343 141.46138 33076 ft 520 kts 141°
2026-04-21 16:32 34.21045 141.49570 33056 ft 530 kts 125°
2026-04-21 16:32 34.19238 141.53462 33088 ft 531 kts 122°
2026-04-21 16:33 34.15777 141.61352 33071 ft 531 kts 122°
2026-04-21 16:33 34.12268 141.69194 33059 ft 530 kts 123°
2026-04-21 16:34 34.08696 141.76959 33053 ft 529 kts 123°
2026-04-21 16:34 34.05098 141.84709 33053 ft 528 kts 123°
2026-04-21 16:35 34.01517 141.92420 33054 ft 528 kts 123°
2026-04-21 16:35 33.97929 142.00142 33053 ft 527 kts 123°
2026-04-21 16:36 33.94345 142.07841 33057 ft 527 kts 123°
2026-04-21 16:36 33.90758 142.15531 33052 ft 527 kts 123°
2026-04-21 16:37 33.87152 142.23153 33046 ft 527 kts 124°
2026-04-21 16:37 33.83302 142.30701 33021 ft 520 kts 137°
2026-04-21 16:37 33.80704 142.33515 33066 ft 502 kts 154°
2026-04-21 16:38 33.77647 142.35527 33043 ft 490 kts 167°
2026-04-21 16:38 33.74419 142.36627 33057 ft 477 kts 179°
2026-04-21 16:38 33.71137 142.37309 33057 ft 480 kts 180°
2026-04-21 16:39 33.64587 142.38646 33041 ft 482 kts 179°
2026-04-21 16:39 33.57958 142.40061 33035 ft 484 kts 179°
2026-04-21 16:40 33.51343 142.41523 33035 ft 484 kts 179°
2026-04-21 16:40 33.44733 142.42997 33035 ft 482 kts 179°
2026-04-21 16:41 33.39212 142.44225 33030 ft 480 kts 179°
2026-04-21 16:41 33.31596 142.45915 33036 ft 478 kts 179°
2026-04-21 16:42 33.25073 142.47354 33031 ft 476 kts 179°
2026-04-21 16:42 33.18577 142.48786 33033 ft 474 kts 179°
2026-04-21 16:43 33.12082 142.50216 33035 ft 473 kts 179°
2026-04-21 16:43 33.05613 142.51639 33040 ft 473 kts 179°
2026-04-21 16:44 32.99139 142.53060 33040 ft 473 kts 179°
2026-04-21 16:44 32.92666 142.54477 33030 ft 474 kts 179°
2026-04-21 16:45 32.86170 142.55900 33033 ft 475 kts 179°
2026-04-21 16:45 32.79803 142.57293 33026 ft 475 kts 179°
2026-04-21 16:46 32.73304 142.58714 33032 ft 475 kts 179°
2026-04-21 16:46 32.66795 142.60131 33027 ft 476 kts 179°
2026-04-21 16:47 32.60273 142.61552 33030 ft 476 kts 179°
2026-04-21 16:47 32.53761 142.62966 33026 ft 476 kts 179°
2026-04-21 16:48 32.47233 142.64382 33026 ft 476 kts 179°
2026-04-21 16:48 32.41823 142.65556 33026 ft 476 kts 179°
2026-04-21 16:49 32.35305 142.66967 33026 ft 476 kts 179°
2026-04-21 16:49 32.28816 142.68370 33027 ft 475 kts 179°
2026-04-21 16:50 32.22310 142.69774 33025 ft 475 kts 179°
2026-04-21 16:50 32.15805 142.71176 33024 ft 475 kts 179°
2026-04-21 16:51 32.09310 142.72574 33018 ft 474 kts 179°
2026-04-21 16:51 32.02808 142.73971 33022 ft 475 kts 179°
2026-04-21 16:52 31.96314 142.75364 33019 ft 474 kts 178°
2026-04-21 16:52 31.89822 142.76756 33018 ft 474 kts 178°
2026-04-21 16:53 31.83329 142.78146 33018 ft 474 kts 178°
2026-04-21 16:53 31.76847 142.79531 33019 ft 473 kts 178°
2026-04-21 16:54 31.70370 142.80912 33019 ft 473 kts 178°
2026-04-21 16:54 31.63893 142.82291 33019 ft 473 kts 178°
2026-04-21 16:55 31.57430 142.83667 33017 ft 472 kts 178°
2026-04-21 16:55 31.50962 142.85041 33017 ft 472 kts 178°
2026-04-21 16:56 31.44508 142.86411 33018 ft 472 kts 178°
2026-04-21 16:56 31.38085 142.87770 33017 ft 471 kts 178°
2026-04-21 16:57 31.31635 142.89134 33010 ft 471 kts 178°
2026-04-21 16:57 31.25177 142.90499 33007 ft 471 kts 178°
2026-04-21 16:58 31.18738 142.91857 33011 ft 471 kts 178°
2026-04-21 16:58 31.12294 142.93215 33009 ft 471 kts 178°
2026-04-21 16:59 31.05850 142.94571 33008 ft 470 kts 178°
2026-04-21 16:59 30.99402 142.95925 33000 ft 470 kts 178°
2026-04-21 17:00 30.92938 142.97280 33075 ft 475 kts 178°
2026-04-21 17:00 30.89689 142.97960 33301 ft 475 kts 178°
2026-04-21 17:00 30.87532 142.98413 33532 ft 473 kts 178°
2026-04-21 17:00 30.83221 142.99320 34008 ft 469 kts 178°
2026-04-21 17:01 30.80014 142.99993 34299 ft 467 kts 178°
2026-04-21 17:01 30.76816 143.00661 34493 ft 468 kts 178°
2026-04-21 17:01 30.73600 143.01330 34649 ft 470 kts 178°
2026-04-21 17:01 30.70386 143.01999 34853 ft 470 kts 178°
2026-04-21 17:02 30.67178 143.02669 35110 ft 468 kts 178°
2026-04-21 17:02 30.63974 143.03337 35309 ft 468 kts 178°
2026-04-21 17:02 30.60763 143.04006 35486 ft 469 kts 178°
2026-04-21 17:02 30.57555 143.04674 35703 ft 468 kts 178°
2026-04-21 17:03 30.54350 143.05341 35908 ft 468 kts 178°
2026-04-21 17:03 30.51143 143.06008 36060 ft 468 kts 178°
2026-04-21 17:03 30.47936 143.06673 36220 ft 468 kts 178°
2026-04-21 17:03 30.44719 143.07340 36391 ft 468 kts 178°
2026-04-21 17:04 30.41514 143.08006 36556 ft 469 kts 178°
2026-04-21 17:04 30.38299 143.08673 36725 ft 468 kts 178°
2026-04-21 17:04 30.35109 143.09336 37005 ft 465 kts 178°
2026-04-21 17:05 30.28771 143.10648 36996 ft 464 kts 178°
2026-04-21 17:05 30.22470 143.11955 36977 ft 456 kts 178°
2026-04-21 17:06 30.16245 143.13238 36995 ft 454 kts 178°
2026-04-21 17:06 30.10020 143.14519 36991 ft 454 kts 178°
2026-04-21 17:07 30.03809 143.15798 36994 ft 454 kts 178°
2026-04-21 17:07 29.97585 143.17120 36997 ft 456 kts 176°
2026-04-21 17:08 29.91363 143.18650 36993 ft 458 kts 175°
2026-04-21 17:08 29.85125 143.20228 36991 ft 459 kts 175°
2026-04-21 17:09 29.75742 143.22561 36992 ft 460 kts 175°
2026-04-21 17:09 29.69470 143.24104 36989 ft 462 kts 175°
2026-04-21 17:10 29.63174 143.25640 36992 ft 462 kts 175°
2026-04-21 17:10 29.56900 143.27171 36989 ft 462 kts 175°
2026-04-21 17:11 29.50614 143.28706 36995 ft 461 kts 175°
2026-04-21 17:11 29.44337 143.30237 36988 ft 461 kts 175°
2026-04-21 17:12 29.38070 143.31763 36990 ft 460 kts 175°
2026-04-21 17:12 29.31817 143.33285 36989 ft 459 kts 175°
2026-04-21 17:13 29.25571 143.34803 36990 ft 458 kts 175°
2026-04-21 17:13 29.19349 143.36314 36991 ft 457 kts 175°
2026-04-21 17:14 29.13133 143.37819 36988 ft 456 kts 175°
2026-04-21 17:14 29.06930 143.39320 36992 ft 455 kts 175°
2026-04-21 17:15 29.00772 143.40808 36987 ft 455 kts 175°
2026-04-21 17:15 28.94583 143.42303 36981 ft 455 kts 175°
2026-04-21 17:16 28.88380 143.43799 36983 ft 455 kts 175°
2026-04-21 17:16 28.82181 143.45293 36985 ft 456 kts 175°
2026-04-21 17:17 28.75971 143.46785 36981 ft 456 kts 174°
2026-04-21 17:17 28.69769 143.48275 36983 ft 456 kts 174°
2026-04-21 17:18 28.63570 143.49762 36982 ft 456 kts 174°
2026-04-21 17:18 28.57369 143.51249 36982 ft 456 kts 174°
2026-04-21 17:19 28.51162 143.52734 36982 ft 456 kts 174°
2026-04-21 17:19 28.44950 143.54219 36983 ft 456 kts 174°
2026-04-21 17:20 28.38743 143.55702 36978 ft 455 kts 174°
2026-04-21 17:20 28.32547 143.57181 36983 ft 455 kts 174°
2026-04-21 17:21 28.26343 143.58658 36980 ft 455 kts 174°
2026-04-21 17:21 28.20192 143.60122 36980 ft 455 kts 174°
2026-04-21 17:22 28.13988 143.61596 36985 ft 455 kts 174°
2026-04-21 17:22 28.07799 143.63065 36981 ft 455 kts 174°
2026-04-21 17:23 28.01601 143.64537 36979 ft 455 kts 174°
2026-04-21 17:23 27.95411 143.66003 36981 ft 455 kts 174°
2026-04-21 17:24 27.89220 143.67469 36982 ft 454 kts 174°
2026-04-21 17:24 27.83032 143.68929 36984 ft 454 kts 174°
2026-04-21 17:25 27.76851 143.70388 36983 ft 454 kts 174°
2026-04-21 17:25 27.70668 143.71845 36981 ft 454 kts 174°
2026-04-21 17:26 27.64496 143.73299 36977 ft 454 kts 174°
2026-04-21 17:26 27.58308 143.74755 36968 ft 454 kts 174°
2026-04-21 17:27 27.52161 143.76198 36974 ft 454 kts 174°
2026-04-21 17:27 27.45932 143.77659 36972 ft 454 kts 174°
2026-04-21 17:28 27.39779 143.79102 36973 ft 455 kts 174°
2026-04-21 17:28 27.33588 143.80550 36976 ft 455 kts 174°
2026-04-21 17:29 27.27384 143.82001 36975 ft 456 kts 174°
2026-04-21 17:29 27.21167 143.83453 36972 ft 456 kts 174°
2026-04-21 17:30 27.14946 143.84905 36976 ft 457 kts 174°
2026-04-21 17:30 27.08719 143.86358 36970 ft 458 kts 174°
2026-04-21 17:31 27.02481 143.87809 36974 ft 458 kts 174°
2026-04-21 17:31 26.96222 143.89264 36976 ft 459 kts 174°
2026-04-21 17:32 26.89953 143.90719 36968 ft 460 kts 174°
2026-04-21 17:32 26.83677 143.92177 36975 ft 461 kts 174°
2026-04-21 17:33 26.77398 143.93632 36970 ft 461 kts 174°
2026-04-21 17:33 26.71107 143.95088 36973 ft 462 kts 174°
2026-04-21 17:34 26.64800 143.96547 36973 ft 463 kts 174°
2026-04-21 17:34 26.58495 143.98002 36973 ft 463 kts 174°
2026-04-21 17:35 26.52179 143.99461 36971 ft 464 kts 174°
2026-04-21 17:35 26.45854 144.00918 36975 ft 464 kts 174°
2026-04-21 17:36 26.40589 144.02130 36972 ft 464 kts 174°
2026-04-21 17:36 26.34262 144.03585 36971 ft 464 kts 174°
2026-04-21 17:37 26.27931 144.05038 36973 ft 464 kts 174°
2026-04-21 17:37 26.20576 144.06726 36972 ft 464 kts 174°
2026-04-21 17:38 26.15278 144.07941 36973 ft 464 kts 174°
2026-04-21 17:38 26.08950 144.09389 36972 ft 464 kts 174°
2026-04-21 17:39 26.02677 144.10824 36968 ft 464 kts 174°
2026-04-21 17:39 25.96364 144.12267 36969 ft 463 kts 174°
2026-04-21 17:40 25.89998 144.13719 36957 ft 464 kts 174°
2026-04-21 17:40 25.83723 144.15149 36953 ft 463 kts 174°
2026-04-21 17:41 25.77396 144.16590 36953 ft 463 kts 174°
2026-04-21 17:41 25.71087 144.18025 36945 ft 463 kts 174°
2026-04-21 17:42 25.64772 144.19459 36944 ft 463 kts 174°
2026-04-21 17:42 25.58459 144.20892 36948 ft 463 kts 174°
2026-04-21 17:43 25.52151 144.22323 36943 ft 463 kts 174°
2026-04-21 17:43 25.45840 144.23752 36946 ft 463 kts 174°
2026-04-21 17:44 25.39524 144.25181 36943 ft 463 kts 174°
2026-04-21 17:44 25.33207 144.26609 36945 ft 464 kts 174°
2026-04-21 17:45 25.26876 144.28038 36944 ft 464 kts 174°
2026-04-21 17:45 25.20544 144.29465 36946 ft 465 kts 174°
2026-04-21 17:46 25.14201 144.30894 36944 ft 465 kts 174°
2026-04-21 17:46 25.07859 144.32322 36946 ft 466 kts 174°
2026-04-21 17:47 25.01511 144.33750 36944 ft 466 kts 174°
2026-04-21 17:47 24.95156 144.35163 36946 ft 466 kts 174°
2026-04-21 17:48 24.88806 144.36560 36944 ft 466 kts 174°
2026-04-21 17:48 24.82443 144.37958 36951 ft 466 kts 174°
2026-04-21 17:49 24.76088 144.39354 36954 ft 466 kts 174°
2026-04-21 17:49 24.69715 144.40754 36957 ft 466 kts 174°
2026-04-21 17:50 24.63400 144.42142 36969 ft 466 kts 174°
2026-04-21 17:50 24.57007 144.43544 36974 ft 466 kts 174°
2026-04-21 17:51 24.50685 144.44929 36975 ft 465 kts 174°
2026-04-21 17:51 24.44328 144.46322 36972 ft 466 kts 174°
2026-04-21 17:52 24.37972 144.47712 36971 ft 466 kts 174°
2026-04-21 17:52 24.31614 144.49100 36975 ft 466 kts 174°
2026-04-21 17:53 24.25250 144.50488 36972 ft 466 kts 174°
2026-04-21 17:53 24.18888 144.51876 36973 ft 466 kts 174°
2026-04-21 17:54 24.12529 144.53260 36971 ft 466 kts 174°
2026-04-21 17:54 24.06155 144.54648 36973 ft 466 kts 174°
2026-04-21 17:55 23.99795 144.56029 36975 ft 467 kts 174°
2026-04-21 17:55 23.93421 144.57412 36966 ft 467 kts 174°
2026-04-21 17:56 23.87050 144.58795 36975 ft 467 kts 174°
2026-04-21 17:56 23.80683 144.60174 36972 ft 466 kts 174°
2026-04-21 17:57 23.74324 144.61551 36974 ft 466 kts 174°
2026-04-21 17:57 23.67995 144.62920 36971 ft 466 kts 174°
2026-04-21 17:58 23.61635 144.64294 36971 ft 466 kts 174°
2026-04-21 17:58 23.55270 144.65668 36971 ft 466 kts 174°
2026-04-21 17:59 23.48901 144.67040 36975 ft 466 kts 174°
2026-04-21 17:59 23.42529 144.68412 36970 ft 466 kts 174°
2026-04-21 18:00 23.36164 144.69782 36970 ft 466 kts 174°
2026-04-21 18:00 23.29796 144.71150 36973 ft 466 kts 174°
2026-04-21 18:01 23.23432 144.72518 36972 ft 467 kts 174°
2026-04-21 18:01 23.17062 144.73884 36971 ft 467 kts 174°
2026-04-21 18:02 23.10690 144.75250 36975 ft 467 kts 174°
2026-04-21 18:02 23.04317 144.76615 36971 ft 466 kts 174°
2026-04-21 18:03 22.97952 144.77976 36974 ft 466 kts 174°
2026-04-21 18:03 22.91587 144.79337 36972 ft 466 kts 174°
2026-04-21 18:04 22.85216 144.80698 36972 ft 466 kts 174°
2026-04-21 18:04 22.78860 144.82053 36970 ft 466 kts 174°
2026-04-21 18:05 22.72500 144.83408 36974 ft 466 kts 174°
2026-04-21 18:05 22.66137 144.84763 36971 ft 466 kts 173°
2026-04-21 18:06 22.59807 144.86109 36975 ft 466 kts 173°
2026-04-21 18:06 22.53434 144.87464 36970 ft 467 kts 173°
2026-04-21 18:07 22.47066 144.88816 36971 ft 467 kts 173°
2026-04-21 18:07 22.40694 144.90168 36974 ft 467 kts 173°
2026-04-21 18:08 22.34278 144.91529 36974 ft 467 kts 173°
2026-04-21 18:08 22.27947 144.92868 36975 ft 467 kts 174°
2026-04-21 18:09 22.21571 144.94215 36982 ft 467 kts 174°
2026-04-21 18:09 22.15196 144.95563 36981 ft 467 kts 174°
2026-04-21 18:10 22.08824 144.96909 36981 ft 467 kts 173°
2026-04-21 18:10 22.02451 144.98254 36980 ft 467 kts 174°
2026-04-21 18:11 21.96076 144.99597 36985 ft 466 kts 173°
2026-04-21 18:11 21.89708 145.00937 36979 ft 466 kts 173°
2026-04-21 18:12 21.83344 145.02276 36981 ft 466 kts 173°
2026-04-21 18:12 21.76976 145.03615 36980 ft 465 kts 173°
2026-04-21 18:13 21.70635 145.04947 36979 ft 464 kts 173°
2026-04-21 18:13 21.64292 145.06277 36981 ft 464 kts 173°
2026-04-21 18:14 21.54803 145.08265 36983 ft 463 kts 173°
2026-04-21 18:15 21.48484 145.09589 36983 ft 462 kts 173°
2026-04-21 18:15 21.42213 145.10900 36982 ft 462 kts 173°
2026-04-21 18:16 21.35898 145.12219 36981 ft 463 kts 173°
2026-04-21 18:16 21.29535 145.13548 36983 ft 463 kts 173°
2026-04-21 18:17 21.23249 145.14860 36985 ft 463 kts 173°
2026-04-21 18:17 21.16926 145.16177 36979 ft 463 kts 173°
2026-04-21 18:18 21.10596 145.17495 36981 ft 463 kts 173°
2026-04-21 18:18 21.04271 145.18812 36983 ft 463 kts 173°
2026-04-21 18:19 20.97927 145.19680 36972 ft 455 kts 187°
2026-04-21 18:19 20.91633 145.19257 36980 ft 453 kts 189°
2026-04-21 18:20 20.85346 145.18769 36979 ft 453 kts 188°
2026-04-21 18:20 20.79047 145.18315 36982 ft 454 kts 188°
2026-04-21 18:21 20.72749 145.17888 36991 ft 454 kts 188°
2026-04-21 18:21 20.66431 145.17469 36994 ft 455 kts 188°
2026-04-21 18:22 20.60121 145.17053 36990 ft 455 kts 188°
2026-04-21 18:22 20.53793 145.16636 36990 ft 455 kts 188°
2026-04-21 18:23 20.47471 145.16218 36991 ft 455 kts 188°
2026-04-21 18:23 20.41146 145.15799 36990 ft 455 kts 188°
2026-04-21 18:24 20.34830 145.15382 36992 ft 454 kts 188°
2026-04-21 18:24 20.29585 145.15037 36988 ft 454 kts 188°
2026-04-21 18:25 20.22254 145.14554 36991 ft 454 kts 188°
2026-04-21 18:25 20.15948 145.14139 36991 ft 454 kts 188°
2026-04-21 18:26 20.10672 145.13792 36992 ft 453 kts 188°
2026-04-21 18:26 20.04367 145.13377 36990 ft 453 kts 188°
2026-04-21 18:27 19.98079 145.12963 36988 ft 453 kts 188°
2026-04-21 18:27 19.91781 145.12550 36991 ft 453 kts 188°
2026-04-21 18:28 19.85496 145.12138 36990 ft 453 kts 188°
2026-04-21 18:28 19.79198 145.11725 36991 ft 453 kts 188°
2026-04-21 18:29 19.72908 145.11313 36991 ft 453 kts 188°
2026-04-21 18:29 19.66621 145.10902 36988 ft 453 kts 187°
2026-04-21 18:30 19.60322 145.10490 36991 ft 453 kts 187°
2026-04-21 18:30 19.54065 145.10081 36992 ft 454 kts 187°
2026-04-21 18:31 19.47766 145.09670 36991 ft 454 kts 187°
2026-04-21 18:31 19.41456 145.09257 36992 ft 455 kts 187°
2026-04-21 18:32 19.35130 145.08847 36991 ft 455 kts 187°
2026-04-21 18:32 19.28808 145.08435 36991 ft 455 kts 187°
2026-04-21 18:33 19.22479 145.08022 36989 ft 455 kts 187°
2026-04-21 18:33 19.16158 145.07611 36989 ft 455 kts 187°
2026-04-21 18:34 19.09836 145.07200 36994 ft 455 kts 187°
2026-04-21 18:34 19.03525 145.06791 37001 ft 455 kts 187°
2026-04-21 18:35 18.98268 145.06450 36999 ft 455 kts 187°
2026-04-21 18:35 18.90887 145.05971 37001 ft 455 kts 187°
2026-04-21 18:36 18.84566 145.05561 37000 ft 455 kts 187°
2026-04-21 18:36 18.78250 145.05153 37001 ft 455 kts 187°
2026-04-21 18:37 18.71919 145.04743 36998 ft 456 kts 187°
2026-04-21 18:37 18.65585 145.04335 37002 ft 456 kts 187°
2026-04-21 18:38 18.59258 145.03926 36999 ft 456 kts 187°
2026-04-21 18:38 18.52918 145.03516 37001 ft 456 kts 187°
2026-04-21 18:39 18.46625 145.03111 36999 ft 456 kts 187°
2026-04-21 18:39 18.40250 145.02700 37000 ft 456 kts 187°
2026-04-21 18:40 18.33915 145.02291 37000 ft 456 kts 187°
2026-04-21 18:40 18.28646 145.01952 37001 ft 456 kts 187°
2026-04-21 18:41 18.21283 145.01479 36998 ft 456 kts 187°
2026-04-21 18:41 18.14943 145.01071 37002 ft 457 kts 187°
2026-04-21 18:42 18.08591 145.00663 37000 ft 457 kts 187°
2026-04-21 18:42 18.02247 145.00257 37000 ft 457 kts 187°
2026-04-21 18:43 17.95898 144.99849 37000 ft 457 kts 187°
2026-04-21 18:43 17.89554 144.99443 37001 ft 457 kts 187°
2026-04-21 18:44 17.83219 144.99037 36999 ft 457 kts 187°
2026-04-21 18:44 17.76870 144.98631 37000 ft 457 kts 187°
2026-04-21 18:45 17.70524 144.98226 37000 ft 457 kts 187°
2026-04-21 18:45 17.64182 144.97843 37000 ft 457 kts 186°
2026-04-21 18:46 17.57842 144.97468 37000 ft 456 kts 186°
2026-04-21 18:46 17.51502 144.97091 37000 ft 456 kts 186°
2026-04-21 18:47 17.45171 144.96712 36999 ft 456 kts 186°
2026-04-21 18:47 17.38835 144.96335 37001 ft 456 kts 186°
2026-04-21 18:48 17.32494 144.95956 37001 ft 456 kts 186°
2026-04-21 18:48 17.26157 144.95578 37001 ft 456 kts 186°
2026-04-21 18:49 17.19812 144.95199 37000 ft 456 kts 186°
2026-04-21 18:49 17.14547 144.94885 37001 ft 456 kts 186°
2026-04-21 18:50 17.07171 144.94445 37002 ft 457 kts 186°
2026-04-21 18:50 17.00828 144.94068 36990 ft 457 kts 186°
2026-04-21 18:51 16.94479 144.93691 36991 ft 457 kts 186°
2026-04-21 18:51 16.88134 144.93314 36990 ft 456 kts 186°
2026-04-21 18:52 16.81798 144.92938 36990 ft 456 kts 186°
2026-04-21 18:52 16.75459 144.92561 36992 ft 456 kts 186°
2026-04-21 18:53 16.69119 144.92184 36988 ft 456 kts 186°
2026-04-21 18:53 16.62791 144.91809 36991 ft 456 kts 186°
2026-04-21 18:54 16.56463 144.91435 36985 ft 455 kts 186°
2026-04-21 18:54 16.50133 144.91060 36973 ft 455 kts 186°
2026-04-21 18:55 16.44862 144.90748 36973 ft 456 kts 186°
2026-04-21 18:55 16.37469 144.90311 36970 ft 455 kts 186°
2026-04-21 18:56 16.31139 144.89937 36973 ft 455 kts 186°
2026-04-21 18:56 16.24812 144.89564 36973 ft 455 kts 186°
2026-04-21 18:57 16.18492 144.89191 36971 ft 455 kts 186°
2026-04-21 18:57 16.12176 144.88819 36974 ft 455 kts 186°
2026-04-21 18:58 16.05861 144.88447 36971 ft 455 kts 186°
2026-04-21 18:58 15.99535 144.88073 36972 ft 455 kts 186°
2026-04-21 18:59 15.93216 144.87702 36974 ft 455 kts 185°
2026-04-21 18:59 15.86900 144.87330 36972 ft 455 kts 185°
2026-04-21 19:00 15.80634 144.86962 36975 ft 455 kts 185°
2026-04-21 19:00 15.74318 144.86590 36971 ft 454 kts 185°
2026-04-21 19:01 15.68004 144.86220 36972 ft 454 kts 185°
2026-04-21 19:01 15.61680 144.85849 36974 ft 454 kts 185°
2026-04-21 19:02 15.55362 144.85479 36971 ft 454 kts 185°
2026-04-21 19:02 15.49046 144.85109 36969 ft 455 kts 185°
2026-04-21 19:03 15.42729 144.84739 36718 ft 459 kts 185°
2026-04-21 19:03 15.39530 144.84551 36217 ft 460 kts 185°
2026-04-21 19:03 15.36343 144.84365 35609 ft 459 kts 185°
2026-04-21 19:03 15.33148 144.84178 34970 ft 460 kts 185°
2026-04-21 19:04 15.29938 144.83989 34322 ft 462 kts 185°
2026-04-21 19:04 15.26727 144.83801 33651 ft 464 kts 185°
2026-04-21 19:04 15.23550 144.83616 32977 ft 464 kts 185°
2026-04-21 19:04 15.20278 144.83425 32275 ft 466 kts 185°
2026-04-21 19:05 15.17011 144.83234 31734 ft 470 kts 185°
2026-04-21 19:05 15.13756 144.82960 31227 ft 469 kts 190°
2026-04-21 19:05 15.10594 144.82234 30713 ft 463 kts 200°
2026-04-21 19:05 15.07626 144.81111 30247 ft 458 kts 202°
2026-04-21 19:06 15.04649 144.79967 29746 ft 455 kts 202°
2026-04-21 19:06 15.01696 144.78840 29246 ft 451 kts 202°
2026-04-21 19:06 14.98752 144.77727 28743 ft 448 kts 201°
2026-04-21 19:06 14.95838 144.76635 28248 ft 444 kts 201°
2026-04-21 19:07 14.92938 144.75556 27755 ft 441 kts 201°
2026-04-21 19:07 14.90070 144.74491 27268 ft 438 kts 201°
2026-04-21 19:07 14.87209 144.73431 26779 ft 435 kts 201°
2026-04-21 19:07 14.84368 144.72379 26292 ft 431 kts 201°
2026-04-21 19:08 14.81562 144.71341 25821 ft 429 kts 201°
2026-04-21 19:08 14.78756 144.70301 25328 ft 426 kts 201°
2026-04-21 19:08 14.75981 144.69274 24848 ft 423 kts 201°
2026-04-21 19:08 14.73213 144.68250 24371 ft 420 kts 201°
2026-04-21 19:09 14.70472 144.67235 23899 ft 418 kts 201°
2026-04-21 19:09 14.67745 144.66226 23426 ft 415 kts 201°
2026-04-21 19:09 14.65036 144.65224 22965 ft 412 kts 201°
2026-04-21 19:09 14.62335 144.64227 22496 ft 409 kts 201°
2026-04-21 19:10 14.59673 144.63243 22037 ft 406 kts 201°
2026-04-21 19:10 14.57038 144.62269 21584 ft 403 kts 201°
2026-04-21 19:10 14.54398 144.61293 21125 ft 401 kts 201°
2026-04-21 19:10 14.51769 144.60320 20673 ft 398 kts 201°
2026-04-21 19:11 14.49173 144.59361 20223 ft 395 kts 201°
2026-04-21 19:11 14.46607 144.58414 19777 ft 392 kts 200°
2026-04-21 19:11 14.44044 144.57468 19326 ft 389 kts 200°
2026-04-21 19:11 14.41494 144.56527 18888 ft 386 kts 200°
2026-04-21 19:12 14.39829 144.55913 18596 ft 384 kts 201°
2026-04-21 19:12 14.37319 144.54986 18161 ft 381 kts 200°
2026-04-21 19:12 14.34835 144.54070 17731 ft 378 kts 200°
2026-04-21 19:12 14.32366 144.53160 17299 ft 375 kts 200°
2026-04-21 19:13 14.29915 144.52256 16896 ft 372 kts 200°
2026-04-21 19:13 14.27487 144.51361 16475 ft 369 kts 200°
2026-04-21 19:13 14.25085 144.50475 16055 ft 366 kts 200°
2026-04-21 19:13 14.22691 144.49593 15638 ft 364 kts 200°
2026-04-21 19:14 14.20313 144.48716 15222 ft 361 kts 200°
2026-04-21 19:14 14.17958 144.47850 14810 ft 359 kts 200°
2026-04-21 19:14 14.15611 144.46985 14424 ft 356 kts 200°
2026-04-21 19:14 14.13290 144.46131 14034 ft 353 kts 200°
2026-04-21 19:15 14.10988 144.45283 13632 ft 351 kts 200°
2026-04-21 19:15 14.08695 144.44440 13230 ft 348 kts 200°
2026-04-21 19:15 14.06405 144.43650 12816 ft 346 kts 192°
2026-04-21 19:15 14.04044 144.43589 12601 ft 337 kts 172°
2026-04-21 19:16 14.01755 144.43987 12088 ft 339 kts 169°
2026-04-21 19:16 13.99420 144.44476 11692 ft 336 kts 168°
2026-04-21 19:16 13.97172 144.44968 11302 ft 336 kts 168°
2026-04-21 19:16 13.94905 144.45460 10891 ft 327 kts 167°
2026-04-21 19:17 13.90564 144.46427 10118 ft 309 kts 167°
2026-04-21 19:17 13.88491 144.46880 9741 ft 300 kts 167°
2026-04-21 19:17 13.86474 144.47316 9382 ft 292 kts 167°
2026-04-21 19:18 13.84512 144.47737 9032 ft 283 kts 167°
2026-04-21 19:18 13.82596 144.48150 8693 ft 278 kts 167°
2026-04-21 19:18 13.80723 144.48552 8351 ft 273 kts 167°
2026-04-21 19:18 13.78872 144.48946 8032 ft 271 kts 166°
2026-04-21 19:19 13.77027 144.49337 7714 ft 272 kts 167°
2026-04-21 19:19 13.75173 144.49729 7378 ft 273 kts 166°
2026-04-21 19:19 13.73330 144.50118 7038 ft 271 kts 166°
2026-04-21 19:19 13.71476 144.50510 6707 ft 272 kts 166°
2026-04-21 19:20 13.69623 144.50900 6367 ft 273 kts 166°
2026-04-21 19:20 13.67756 144.51296 6044 ft 274 kts 166°
2026-04-21 19:20 13.65888 144.51690 5712 ft 274 kts 166°
2026-04-21 19:20 13.64064 144.52073 5569 ft 260 kts 166°
2026-04-21 19:21 13.62336 144.52436 5426 ft 248 kts 166°
2026-04-21 19:21 13.60686 144.52782 5316 ft 234 kts 166°
2026-04-21 19:21 13.59095 144.53118 5246 ft 233 kts 165°
2026-04-21 19:21 13.57518 144.53464 5147 ft 231 kts 165°
2026-04-21 19:22 13.55946 144.53788 5053 ft 228 kts 166°
2026-04-21 19:22 13.54412 144.54105 4967 ft 226 kts 165°
2026-04-21 19:22 13.52868 144.54425 4889 ft 227 kts 165°
2026-04-21 19:22 13.51315 144.54754 4811 ft 229 kts 165°
2026-04-21 19:23 13.49752 144.55085 4719 ft 231 kts 165°
2026-04-21 19:23 13.48166 144.55425 4653 ft 230 kts 165°
2026-04-21 19:23 13.46626 144.55764 4497 ft 229 kts 161°
2026-04-21 19:23 13.45163 144.56412 4272 ft 228 kts 150°
2026-04-21 19:24 13.43755 144.57123 4043 ft 223 kts 151°
2026-04-21 19:24 13.42375 144.57792 3832 ft 215 kts 151°
2026-04-21 19:24 13.41048 144.58465 3631 ft 210 kts 143°
2026-04-21 19:24 13.40215 144.59590 3443 ft 194 kts 99°
2026-04-21 19:25 13.40364 144.60902 3303 ft 183 kts 70°
2026-04-21 19:25 13.40763 144.62135 3132 ft 180 kts 73°
2026-04-21 19:25 13.41157 144.63361 3066 ft 181 kts 70°
2026-04-21 19:25 13.41629 144.64557 3038 ft 183 kts 66°
2026-04-21 19:26 13.42153 144.65748 2886 ft 181 kts 65°
2026-04-21 19:26 13.42678 144.66910 2648 ft 177 kts 65°
2026-04-21 19:26 13.43192 144.68047 2418 ft 173 kts 64°
2026-04-21 19:26 13.43689 144.69143 2175 ft 164 kts 64°
2026-04-21 19:27 13.44154 144.70165 1967 ft 154 kts 64°
2026-04-21 19:27 13.44619 144.71187 1806 ft 162 kts 65°
2026-04-21 19:27 13.45089 144.72229 1596 ft 158 kts 64°
2026-04-21 19:27 13.45538 144.73218 1406 ft 150 kts 64°
2026-04-21 19:28 13.45982 144.74194 1160 ft 149 kts 64°
2026-04-21 19:28 13.46405 144.75131 998 ft 141 kts 64°
2026-04-21 19:28 13.46820 144.76036 798 ft 139 kts 62°
2026-04-21 19:28 13.47239 144.76950 584 ft 145 kts 63°
2026-04-21 19:29 13.47664 144.77885 387 ft 143 kts 62°
2026-04-21 19:29 13.48077 144.78798 275 ft 135 kts 63°
2026-04-21 19:29 13.48427 144.79580 279 ft 103 kts 65°
2026-04-21 19:29 13.48679 144.80136 289 ft 71 kts 65°
2026-04-21 19:30 13.48872 144.80551 293 ft 60 kts 64°
2026-04-21 19:30 13.49025 144.80880 298 ft 26 kts 58°
2026-04-21 19:30 13.49161 144.80968 301 ft 16 kts 24°
2026-04-21 19:30 13.49245 144.81001 298 ft 11 kts 356°
2026-04-21 19:31 13.49286 144.80938 296 ft 11 kts 303°
2026-04-21 19:31 13.49345 144.80899 296 ft 5 kts 332°
2026-04-21 19:31 13.49355 144.80894 296 ft 0 kts 333°